Regional Weather Roundup
Issued by NWS Goodland, KS

Home | Current Version | Previous Version | Text Only | Print | Product List | Glossary Off
Versions: 1 2 3 4 5 6 7 8 9 10 11 12 13 14 15 16 17 18 19 20 21 22 23 24 25 26 27 28 29 30 31 32 33 34 35 36 37 38 39 40 41 42 43 44 45 46 47 48 49 50

778
ASUS43 KGLD 061959
RWRGLD

GOODLAND FORECAST AREA HOURLY WEATHER ROUNDUP
NATIONAL WEATHER SERVICE GOODLAND KS
200 PM MDT FRI MAY 06 2016

...OFFICIAL OBSERVATIONS...

CITY           SKY/WX    TMP DP  RH WIND       PRES   REMARKS
GOODLAND KS    MOSUNNY   86  33  15 S21G31    29.91F
HILL CITY KS   MOSUNNY   86  48  26 S17G28    29.93F
IMPERIAL NEB   PTSUNNY   82  51  34 SE14      29.90F
MCCOOK NEB     PTSUNNY   81  52  36 S13G23    29.90F
AKRON CO       MOSUNNY   82  42  24 S12G22    29.91F
BURLINGTON CO  MOSUNNY   83  28  13 S23G31    29.94F
LIMON CO       MOSUNNY   78  36  21 S16G28    29.97F
$$

...UNOFFICIAL OBSERVATIONS...

CITY           SKY/WX    TMP DP  RH WIND       PRES   REMARKS
COLBY KS       SUNNY     81  55  41 S16       29.94F
LENORA KS        N/A     83  32  16 MISG        N/A
NORTON KS      SUNNY     84  41  21 S16       29.92F
SHARON SPRINGS   N/A     87  41  19 S18G26      N/A
KIT CARSON CO    N/A     82  38  21 MISG        N/A
YUMA CO          N/A     82  51  33 CALM        N/A
$$




USA.gov is the U.S. government's official web portal to all federal, state and local government web resources and services.